Starlink 5660

operational
NORAD ID: 55335 Int'l Des: 2023-013 Owner: SPXS Country: US Constellation: starlink
LEOCIRCULAR

About Starlink 5660

Description loading...

Live Position

Loading 3D Globe...

Upcoming Passes

Altitude History

Altitude vs Time

uPlot chart will show altitude changes over time

Two-Line Element Set

1 55335U 23013E 25350.51006162 .00002166 00000-0 17535-3 0 9995
2 55335 43.0047 32.6008 0001300 270.8172 89.2522 15.02534628159190
Epoch: Dec 16, 2025 • Age: 20 hours

Current Status

Altitude 563.1 km
Velocity 7.59 km/s
Sub-Earth Point 42.96°N, 91.33°W
Launch Date Jan 26, 2023
Age 2.8 years
Type internet

Technical Details

Classification Payload
Mass 305.00 kg
Dry Mass 290.00 kg
Total Mass 305.00 kg
Length 0.20 m
Diameter 2.80 m
Span 9.00 m
Shape Box + pan
Manufacturer SPXS
Bus Type Starlink
Phase Status In Orbit
Owner/State SPXS/US

Large Constellations

Loading constellations...